Location: Possagno
(45.8500°N, 11.8667°E)
Time: 09:23:06
(UTC+00:00)

NOAA 15 - Visible Passes

Search period start: 28 October 2021 00:00
Search period end: 07 November 2021 00:00
Orbit: 798 x 811 km, 98.7° (Epoch: 27 October)

Date Brightness Start Highest point End Pass type
(mag) Time Alt. Az. Time Alt. Az. Time Alt. Az.
28 Oct 4.6 18:03:28 10° SSE 18:08:46 82° WSW 18:14:08 10° NNW visible
28 Oct 7.5 19:47:46 10° WSW 19:49:22 11° W 19:50:58 10° WNW visible
29 Oct 4.6 17:38:23 10° SSE 17:43:37 62° ENE 17:48:52 10° N visible
29 Oct 7.0 19:20:04 10° SW 19:23:48 19° W 19:27:35 10° NW visible
30 Oct 5.0 17:13:39 10° SE 17:18:32 39° ENE 17:23:27 10° N visible
30 Oct 6.3 18:53:41 10° SSW 18:58:21 31° W 19:03:05 10° NNW visible
31 Oct 5.6 16:49:18 10° ESE 16:53:33 25° ENE 16:57:50 10° N visible
31 Oct 5.4 18:27:51 10° S 18:33:01 51° W 18:38:13 10° NNW visible
01 Nov 6.1 16:25:28 10° E 16:28:40 16° ENE 16:31:53 10° NNE visible
01 Nov 4.6 18:02:26 10° SSE 18:07:45 84° WSW 18:13:07 10° NNW visible
01 Nov 7.5 19:46:33 10° WSW 19:48:19 12° W 19:50:06 10° WNW visible
02 Nov 4.6 17:37:22 10° SSE 17:42:35 61° ENE 17:47:50 10° N visible
02 Nov 7.0 19:18:59 10° SW 19:22:47 20° W 19:26:35 10° NW visible
03 Nov 5.1 17:12:39 10° SE 17:17:31 38° ENE 17:22:25 10° N visible
03 Nov 6.2 18:52:37 10° SSW 18:57:20 32° W 19:02:05 10° NNW visible
04 Nov 8.0 05:27:34 10° ENE 05:29:00 11° E 05:30:25 10° ESE visible
04 Nov 5.6 16:48:19 10° ESE 16:52:33 25° ENE 16:56:46 10° N visible
04 Nov 5.3 18:26:49 10° S 18:31:59 52° W 18:37:12 10° NNW visible
05 Nov 6.1 16:24:31 10° E 16:27:40 16° ENE 16:30:49 10° NNE visible
05 Nov 4.6 18:01:25 10° SSE 18:06:44 85° WSW 18:12:05 10° NNW visible
05 Nov 7.5 19:45:21 10° WSW 19:47:16 12° W 19:49:13 10° WNW visible
06 Nov 4.6 17:36:22 10° SSE 17:41:34 60° ENE 17:46:48 10° N visible
06 Nov 6.9 19:17:54 10° SW 19:21:45 20° W 19:25:37 10° NW visible
